Flag for Romania Weather past 2 weeks in Cluj-Napoca, Romania

Now
45 °F

Overcast.


Feels Like: 42 °F
Forecast: 36 / 47 °F
Wind: 5 mph from Northeast

Location: Cluj Airport-Napoca

Current Time: Dec 19, 2014 at 5:53:25 PM

Latest Report: Dec 19, 2014 at 5:30 PM


Visibility: N/A

Pressure: 30.09 "Hg

Humidity: 87%

Dew point: 41 °F

Location of Cluj-NapocaLocation

Historic Weather in Cluj-Napoca — Graph

°F

Cluj-Napoca temperature yesterday

Maximum temperature yesterday: 46 °F (at 1:00 PM)
Minimum temperature yesterday: 36 °F (at 8:00 AM)
Average temperature yesterday: 41 °F

Past Weeks' High & Low Weather Summary

 TemperatureHumidityPressure
High48 °F (Dec 6, 1:30 PM)100% (Dec 4, 8:00 PM)30.27 "Hg (Dec 4, 8:00 PM)
Low27 °F (Dec 5, 5:00 AM)66% (Dec 18, 2:00 PM)29.83 "Hg (Dec 17, 6:00 AM)
Average37 °F97%30.09 "Hg
* Reported Dec 4 4:00 PM — Dec 19 4:30 PM, Cluj-Napoca, Weather by CustomWeather, © 2014

Note: Actual official high and low records may vary slightly from our data, if they occured in-between our weather recording intervals... More about our weather records

Advertising

Cluj-Napoca weather history for previous 24 hours

 ConditionsComfort  
Time TempWeatherWind HumidityBarometerVisibility
4:30 PM
Dec 19
45 °FOvercast.5 mph87%30.09 "HgN/A
4:00 PM46 °FOvercast.7 mph82%30.09 "HgN/A
3:30 PM46 °FPartly sunny.7 mph82%30.09 "HgN/A
3:00 PM45 °FPartly sunny.7 mph81%30.09 "HgN/A
2:30 PM46 °FPartly sunny.9 mph82%30.07 "HgN/A
2:00 PM45 °FOvercast.5 mph87%30.09 "HgN/A
1:30 PM45 °FPartly sunny.7 mph81%30.09 "HgN/A
1:00 PM45 °FPartly sunny.7 mph81%30.12 "HgN/A
12:30 PM45 °FPartly sunny.7 mph81%30.09 "HgN/A
12:00 PM45 °FPartly sunny.7 mph81%30.09 "HgN/A
11:30 AM45 °FOvercast.7 mph81%30.12 "HgN/A
11:00 AM43 °FOvercast.7 mph87%30.12 "HgN/A
10:30 AM43 °FPartly sunny.7 mph87%30.12 "HgN/A
10:00 AM43 °FPartly sunny.5 mph87%30.12 "HgN/A
9:30 AM41 °FPartly sunny.7 mph93%30.12 "HgN/A
9:00 AM41 °FPartly sunny.5 mph93%30.12 "HgN/A
8:30 AM41 °FPartly sunny.5 mph87%30.12 "HgN/A
8:00 AM41 °FPassing clouds.5 mph87%30.12 "HgN/A
7:30 AM41 °FPassing clouds.5 mph87%30.12 "HgN/A
7:00 AM39 °FPassing clouds.5 mph100%30.12 "HgN/A
6:30 AM39 °FPassing clouds.No wind100%30.12 "HgN/A
6:00 AM39 °FPassing clouds.No wind100%30.12 "HgN/A
5:30 AM39 °FPassing clouds.No wind100%30.12 "HgN/A
5:00 AM39 °FPassing clouds.2 mph100%30.12 "HgN/A
4:00 AM39 °FPassing clouds.2 mph100%30.12 "HgN/A
3:00 AM39 °FPassing clouds.No wind100%30.12 "HgN/A
2:00 AM39 °FPassing clouds.2 mph100%30.12 "Hg4 mi
1:00 AM39 °FPassing clouds.2 mph100%30.12 "Hg4 mi
12:00 AM39 °FPassing clouds.2 mph93%30.12 "HgN/A
11:30 PM
Dec 18
39 °FPassing clouds.No wind100%30.12 "HgN/A
11:00 PM39 °FPassing clouds.2 mph100%30.12 "HgN/A
10:30 PM41 °FPassing clouds.2 mph93%30.12 "HgN/A
10:00 PM41 °FPassing clouds.2 mph93%30.12 "HgN/A
9:30 PM41 °FPassing clouds.No wind93%30.12 "HgN/A
9:00 PM41 °FPassing clouds.No wind93%30.09 "HgN/A
8:30 PM41 °FPassing clouds.No wind93%30.09 "HgN/A
8:00 PM43 °FOvercast.2 mph81%30.09 "HgN/A
7:30 PM41 °FOvercast.No wind93%30.09 "HgN/A
7:00 PM41 °FOvercast.2 mph93%30.07 "HgN/A
6:30 PM43 °FOvercast.No wind87%30.07 "HgN/A
6:00 PM43 °FOvercast.2 mph87%30.07 "HgN/A
5:30 PM43 °FOvercast.5 mph81%30.07 "HgN/A
Weather by CustomWeather, © 2014

See weather overviewHow to use our weather pages